• In Kazakhstan
  • List of Countries
  • For 7 days
  • Water Temperature
  • Weather Map
  • News
  • Weather Widgets
  • user-avatar
    Login

    Hourly Weather Reykjavík

    Today, 20 January, Monday

    Time Temperature Precipitation Wind Pressure Humidity
    00:00 -1°C° 0.7 mm 8 mps 750 mmHg 96%
    01:00 -1°C° 0.7 mm 8 mps 749 mmHg 97%
    02:00 -2°C° 0.7 mm 7 mps 749 mmHg 97%
    03:00 -1°C° 0.9 mm 9 mps 749 mmHg 89%
    04:00 -2°C° 0.9 mm 11 mps 749 mmHg 80%
    05:00 -2°C° 0 mm 13 mps 749 mmHg 71%
    06:00 -2°C° 0.1 mm 13 mps 750 mmHg 69%
    07:00 -4°C° 0.1 mm 14 mps 751 mmHg 68%
    08:00 -4°C° 0.1 mm 14 mps 752 mmHg 67%
    09:00 -4°C° 0.2 mm 15 mps 753 mmHg 69%
    10:00 -4°C° 0.2 mm 15 mps 754 mmHg 71%
    11:00 -5°C° 0.2 mm 16 mps 754 mmHg 73%
    12:00 -5°C° 0.2 mm 16 mps 755 mmHg 75%
    13:00 -5°C° 0.2 mm 16 mps 756 mmHg 77%
    14:00 -5°C° 0.2 mm 16 mps 757 mmHg 79%
    15:00 -5°C° 0.2 mm 16 mps 757 mmHg 78%
    16:00 -5°C° 0.2 mm 15 mps 758 mmHg 76%
    17:00 -5°C° 0.2 mm 14 mps 758 mmHg 75%
    18:00 -5°C° 0.1 mm 14 mps 759 mmHg 75%
    19:00 -4°C° 0.1 mm 14 mps 760 mmHg 75%
    20:00 -4°C° 0.1 mm 13 mps 761 mmHg 74%
    21:00 -4°C° 0.1 mm 13 mps 762 mmHg 76%
    22:00 -3°C° 0.1 mm 12 mps 762 mmHg 78%
    23:00 -3°C° 0.1 mm 12 mps 763 mmHg 80%

    Tomorrow, 21 January, Tuesday

    Time Temperature Precipitation Wind Pressure Humidity
    00:00 -3°C° 0.2 mm 11 mps 763 mmHg 84%
    01:00 -4°C° 0.2 mm 11 mps 763 mmHg 88%
    02:00 -4°C° 0.2 mm 10 mps 764 mmHg 92%
    03:00 -3°C° 0.8 mm 10 mps 764 mmHg 93%
    04:00 -3°C° 0.8 mm 9 mps 764 mmHg 94%
    05:00 -2°C° 0.8 mm 8 mps 764 mmHg 95%
    06:00 -2°C° 0.1 mm 7 mps 764 mmHg 95%
    07:00 -2°C° 0.1 mm 6 mps 764 mmHg 94%
    08:00 -1°C° 0.1 mm 5 mps 764 mmHg 94%
    09:00 -1°C° 0.5 mm 5 mps 765 mmHg 95%
    10:00 -1°C° 0.5 mm 4 mps 765 mmHg 96%
    11:00 +1°C° 0.5 mm 3 mps 765 mmHg 97%
    12:00 0°C° 0.2 mm 4 mps 765 mmHg 97%
    13:00 0°C° 0.2 mm 4 mps 765 mmHg 96%
    14:00 +1°C° 0.2 mm 5 mps 765 mmHg 95%
    15:00 +1°C° 0 mm 5 mps 764 mmHg 95%
    16:00 +1°C° 0 mm 6 mps 764 mmHg 95%
    17:00 0°C° 0 mm 7 mps 763 mmHg 95%
    18:00 +1°C° 0.7 mm 8 mps 763 mmHg 95%
    19:00 +1°C° 0.7 mm 9 mps 763 mmHg 96%
    20:00 +1°C° 0.7 mm 10 mps 762 mmHg 97%
    21:00 +1°C° 1.8 mm 9 mps 761 mmHg 97%
    22:00 +2°C° 1.8 mm 9 mps 761 mmHg 98%
    23:00 +2°C° 1.8 mm 8 mps 760 mmHg 98%

    Day after tomorrow, 22 January, Wednesday

    Time Temperature Precipitation Wind Pressure Humidity
    00:00 +2°C° 2.4 mm 8 mps 759 mmHg 98%
    01:00 +2°C° 2.4 mm 8 mps 758 mmHg 98%
    02:00 +4°C° 2.4 mm 7 mps 758 mmHg 99%
    03:00 +4°C° 2.6 mm 8 mps 757 mmHg 98%
    04:00 +4°C° 2.6 mm 8 mps 756 mmHg 98%
    05:00 +5°C° 2.6 mm 8 mps 755 mmHg 98%
    06:00 +5°C° 1.8 mm 9 mps 754 mmHg 98%
    07:00 +5°C° 1.8 mm 9 mps 753 mmHg 98%
    08:00 +5°C° 1.8 mm 10 mps 752 mmHg 98%
    09:00 +5°C° 0.9 mm 10 mps 751 mmHg 98%
    10:00 +5°C° 0.9 mm 10 mps 750 mmHg 98%
    11:00 +5°C° 0.9 mm 10 mps 749 mmHg 98%
    12:00 +5°C° 0.5 mm 10 mps 749 mmHg 97%
    13:00 +5°C° 0.5 mm 10 mps 748 mmHg 97%
    14:00 +5°C° 0.5 mm 10 mps 748 mmHg 97%
    15:00 +2°C° 0.4 mm 11 mps 748 mmHg 95%
    16:00 +1°C° 0.4 mm 11 mps 749 mmHg 94%
    17:00 -2°C° 0.4 mm 11 mps 749 mmHg 93%
    18:00 -3°C° 0.9 mm 12 mps 749 mmHg 92%
    19:00 -4°C° 0.9 mm 13 mps 749 mmHg 91%
    20:00 -5°C° 0.9 mm 14 mps 749 mmHg 89%
    21:00 -5°C° 0.3 mm 14 mps 749 mmHg 86%
    22:00 -5°C° 0.3 mm 14 mps 748 mmHg 82%
    23:00 -6°C° 0.3 mm 14 mps 748 mmHg 79%

    23 January, Thursday

    Time Temperature Precipitation Wind Pressure Humidity
    00:00 -7°C° 0.3 mm 15 mps 748 mmHg 81%
    01:00 -7°C° 0.3 mm 16 mps 747 mmHg 84%
    02:00 -7°C° 0.3 mm 17 mps 746 mmHg 87%
    03:00 -7°C° 0.2 mm 17 mps 746 mmHg 77%
    04:00 -7°C° 0.2 mm 17 mps 746 mmHg 66%
    05:00 -7°C° 0.2 mm 16 mps 746 mmHg 56%
    06:00 -7°C° 0.2 mm 16 mps 746 mmHg 58%
    07:00 -7°C° 0.2 mm 16 mps 746 mmHg 61%
    08:00 -7°C° 0.2 mm 16 mps 746 mmHg 63%
    09:00 -7°C° 0.3 mm 17 mps 746 mmHg 63%
    10:00 -7°C° 0.3 mm 17 mps 745 mmHg 62%
    11:00 -7°C° 0.3 mm 18 mps 744 mmHg 62%
    12:00 -7°C° 0.3 mm 17 mps 744 mmHg 67%
    13:00 -7°C° 0.3 mm 16 mps 743 mmHg 72%
    14:00 -8°C° 0.3 mm 16 mps 743 mmHg 77%
    15:00 -8°C° 0.3 mm 16 mps 742 mmHg 75%
    16:00 -8°C° 0.3 mm 16 mps 742 mmHg 74%
    17:00 -8°C° 0.3 mm 16 mps 742 mmHg 72%
    18:00 -8°C° 0.1 mm 16 mps 742 mmHg 71%
    19:00 -9°C° 0.1 mm 16 mps 742 mmHg 70%
    20:00 -9°C° 0.1 mm 16 mps 742 mmHg 69%
    21:00 -9°C° 0.3 mm 15 mps 742 mmHg 71%
    22:00 -8°C° 0.3 mm 15 mps 742 mmHg 72%
    23:00 -8°C° 0.3 mm 15 mps 742 mmHg 74%

    24 January, Friday

    Time Temperature Precipitation Wind Pressure Humidity
    00:00 -8°C° 0.3 mm 15 mps 743 mmHg 76%
    01:00 -6°C° 0.3 mm 14 mps 743 mmHg 78%
    02:00 -6°C° 0.3 mm 14 mps 743 mmHg 79%
    03:00 -6°C° 0.2 mm 13 mps 743 mmHg 83%
    04:00 -6°C° 0.2 mm 11 mps 743 mmHg 86%
    05:00 -5°C° 0.2 mm 9 mps 743 mmHg 89%
    06:00 -4°C° 0.9 mm 8 mps 743 mmHg 91%
    07:00 -3°C° 0.9 mm 7 mps 743 mmHg 93%
    08:00 -2°C° 0.9 mm 5 mps 743 mmHg 95%
    09:00 -3°C° 1.3 mm 7 mps 742 mmHg 95%
    10:00 -3°C° 1.3 mm 9 mps 742 mmHg 95%
    11:00 -3°C° 1.3 mm 10 mps 741 mmHg 95%
    12:00 -3°C° 0.8 mm 10 mps 741 mmHg 95%
    13:00 -3°C° 0.8 mm 10 mps 740 mmHg 96%
    14:00 -3°C° 0.8 mm 10 mps 739 mmHg 96%
    15:00 -3°C° 0.6 mm 10 mps 739 mmHg 92%
    16:00 -3°C° 0.6 mm 9 mps 739 mmHg 87%
    17:00 -2°C° 0.6 mm 8 mps 738 mmHg 83%
    18:00 -3°C° 0.1 mm 9 mps 738 mmHg 79%
    19:00 -4°C° 0.1 mm 9 mps 739 mmHg 76%
    20:00 -4°C° 0.1 mm 9 mps 739 mmHg 72%
    21:00 -5°C° 0.1 mm 8 mps 739 mmHg 75%
    22:00 -4°C° 0.1 mm 6 mps 739 mmHg 79%
    23:00 -3°C° 0.1 mm 4 mps 738 mmHg 82%

    25 January, Saturday

    Time Temperature Precipitation Wind Pressure Humidity
    00:00 -2°C° 0.1 mm 3 mps 738 mmHg 85%
    01:00 -3°C° 0.1 mm 2 mps 737 mmHg 88%
    02:00 -1°C° 0.1 mm 1 mps 737 mmHg 91%
    03:00 -3°C° 0 mm 2 mps 736 mmHg 91%
    04:00 -4°C° 0 mm 3 mps 735 mmHg 92%
    05:00 -4°C° 0 mm 3 mps 734 mmHg 93%
    06:00 -4°C° 0 mm 4 mps 734 mmHg 91%
    07:00 -4°C° 0 mm 4 mps 733 mmHg 88%
    08:00 -5°C° 0 mm 5 mps 732 mmHg 86%
    09:00 -5°C° 0.1 mm 5 mps 731 mmHg 86%
    10:00 -5°C° 0.1 mm 5 mps 730 mmHg 86%
    11:00 -5°C° 0.1 mm 6 mps 729 mmHg 86%
    12:00 -5°C° 0.4 mm 5 mps 729 mmHg 87%
    13:00 -5°C° 0.4 mm 5 mps 728 mmHg 88%
    14:00 -6°C° 0.4 mm 5 mps 727 mmHg 89%
    15:00 -6°C° 0.6 mm 5 mps 727 mmHg 90%
    16:00 -6°C° 0.6 mm 6 mps 727 mmHg 91%
    17:00 -6°C° 0.6 mm 6 mps 727 mmHg 91%
    18:00 -8°C° 0.2 mm 7 mps 727 mmHg 89%
    19:00 -8°C° 0.2 mm 7 mps 727 mmHg 87%
    20:00 -8°C° 0.2 mm 8 mps 727 mmHg 85%
    21:00 -9°C° 0 mm 7 mps 727 mmHg 84%
    22:00 -9°C° 0 mm 7 mps 727 mmHg 82%
    23:00 -9°C° 0 mm 6 mps 727 mmHg 80%
    Show more